Nature

Haifa Airport (HFA/LLHA) also known as U Michaeli Airport is a small international airport located in Haifa, Israel. It is located to the east of the city.
It mainly serves civilian flights, with some military usage. Most passenger flights utilizing the airport are domestic operations to Eilat and Tel Aviv.

AT EILAT AIRPORT YOU CAN FIND A SINGLE RUNWAY (16/34).

Scenery:

Sim Download Size Author
P3D & FSX LLHA Haifa v1.1 16.9MB Freeware Niv Tesler + Bar Rodoy
P3D & FSX ICVFR Haifa 32.8MB Freeware Chris Bell

Charts:

File Name
General Aerodrome Chart
Ground Parkings Chart
Ground Parkings G
Ground Parkings N
CVFR Entrance, and exit CVFR
CVFR Training Zones Chart
CVFR Traffic Pattrens Chart

METAR & TAF:

Available data for LLHA from the past hour
HAIFA (ISR-AFB)
Metar
LLHA 240450Z 17006KT CAVOK 29/10 Q1007

04:50 UTC

Wind: 170° 6kt

Visibility:

Sky:

Temp: 29 deg C / 84.2 deg F

Dewpoint: 10 deg C / 50 deg F

Pressure: 1007 hPa

TAF
TAF LLHA 232323Z 2400/2424 13006KT CAVOK BECMG 2407/2409 25010KT PROB40 2409/2412 28018KT BECMG 2421/2423 VRB04KT TX37/2408Z TN25/2403Z